CZ-6A DEB, 55532

Orbit data source: Space-Track

CZ-6A DEB, 55532 is space debris in SSO originally from a launch on Fri, 11 Nov 2022 UTC launched from the Taiyaun Space Center, China (TSC). Debris objects in space refer to the collection of defunct objects orbiting the Earth. Examples of debris include non-operational satellites, rocket bodies, and fragments generated from explosions, collisions, or faulty payload assembly.

Loading next visibility...
Identifier
55532, 2022-151YE
Orbit
SSO
Country
Flag of CNCN / PRC
Related business
Manufacturer
SAST
Mission
Spacecraft
Bus & Motor
Unknown
Mass
Unknown
Launch date (UTC)
2022-11-11 (4 years ago)
Launch vehicle
Unknown
Launch site
Taiyaun Space Center, China (TSC)
Object type
Payload
Rocket body
Debris
Shape & HBR
Unknown shape, 0.1 m
Radar Cross Section
Small (<0.1 m²)

Expand to show TLE details & history
Last TLE update: 2 days ago

TLE from 2 days ago
0 CZ-6A DEB
1 55532U 22151YE  26171.47859510  .00031107  00000-0  28751-2 0  9994
2 55532  98.6379 250.0815 0044127 238.0266 121.6658 14.93764113186205
Epoch: 2026-06-20T11:29Z
TLE epoch observation values (Epoch: 2026-06-20T11:29:10.616Z)
Latitude
-0.00005°
Longitude
169.09464°
Altitude
605.463 km
Speed
7.548 km/s
True Right ascension
16h 40m 19s
True Declination
0° 00' 00"
Sunlit
Object was in full shadow at epoch
Visualization orbit readout
Latitude
Unknown
Longitude
Unknown
Altitude
Unknown
Speed
Unknown
Apparent Right ascension
Unknown
Apparent Declination
Unknown
Sunlit
N/A
Visualization observer readout
Local Sidereal Time
21:28:17
Azimuth
Unknown
Elevation
Unknown
Doppler factor
Unknown
Orbital elements
Apogee altitude
613.987 km
Perigee altitude
552.55 km
Semi-major axis
6,961.406 km
Eccentricity
0.00441
Inclination
98.6379°
RAAN
250.0815°
Arg. of periapsis
238.0266°
True anomaly
122.09493°
Mean anomaly
121.6658°
Eccentric anomaly
121.88049°
Mean motion
3.73678 °/min
Orbital period
96.34 mins
BSTAR
0.0028751
Loading maneuver chart data...
Computing Atmospheric mass density...
Loading historical data...
Loading historical data...
Loading historical data...
Loading historical data...
Loading historical data...
Loading historical data...
Loading historical data...

Documentation

Showing up to 5 results
|